Погода Мыс Терпения

Погода Мыс Терпения : погода сейчас, прогноз погоды и архив. Всё, что Вы хотите узнать о погоде Мыс Терпения!

Поиск расширенной информации на нашем сайте:

Другие новости

Новости СМИ2

Главная страница сайта

Новости сайта

03.07.2017

Напоминаем, что на нашем специализированном сайте Метеоцентр.Азия вы можете получить высокодетализированные автоматические прогнозы погоды по пунктам России, СНГ и мира в авиационном формате (включающие направление и скорость ветра, видимость, явления погоды, количество и форму облачности, нижнюю и верхнюю границу облачности).

Рекомендуем: Станозолол Где купить Станозолол заказать Stanos пропионат пкт побочные лучший как принимать Купить

Погода Мыс Терпения - сегодня

Время (UTC), дата Ветер
(°,м/с) 
Видим.   Явления Облачность Т
(°С)
Тd
(°С)
f(%) Тe
(°С)
Pmin
(гПа)
dP
(гПа)
Po
(мм)
O2
(г/м3)
Тmin Tmax R s Состояние
почвы
18 20.11.17 290 (З) 10-13{15}  10 км  метель{ливн. осадки}  6/6 600 м кучево-дожд. 
[Cb cap]
-7.8 -13.8 62 -15  1009.2  1.6  756  315           
21 20.11.17 250 (З) 10-14{16}  10 км  метель  9/9 600 м кучево-дожд. 
[Cb cap]
-9.3 -12.6 77 -16  1011.8  2.6  758  317  -9.8    0.0  10  неравномерный
сухой снег
100% 
00 21.11.17 260 (З) 10-17{17}  10 км  метель  9/9 600 м кучево-дожд. 
[Cb cap]
-9.6 -15.6 62 -17  1013.7  1.9  760  319  -9.9         
03 21.11.17 270 (З) 9-13{17}  20000 м    10/10 600 м кучево-дожд. 
[Cb cap]
-9.2 -15.3 61 -16  1014.4  0.7  760  318           
06 21.11.17 280 (З) 8-12{14}  20000 м  позёмок{ливн. осадки}  9/9 600 м кучево-дожд. 
[Cb cap]
-8.7 -14.1 65 -15  1016  1.6  761  318           
09 21.11.17 290 (З) 9-13{15}  20000 м  позёмок  4/4 600 м кучево-дожд. 
[Cb cap]
-7.4 -13.7 61 -14  1017.7  1.7  763  317    -7.4  0.0     
12 21.11.17 270 (З) 8-11{14}  20000 м    9/9 600 м кучево-дожд. 
[Cb cap]
-4.6 -10.7 62 -10  1017.5  -0.2  762  314           
15 21.11.17 210 (ЮЗ) 10-14{14}  20000 м  слаб. ливневой снег  9/9 600 м кучево-дожд. 
[Cb cap]
-2.6 -7.7 68 -8  1016.5  -1  762  311           
18 21.11.17 220 (ЮЗ) 8-11{15}  4000 м  слаб. ливневой снег  8/8 600 м кучево-дожд. 
[Cb cap]
-1.8 -3.2 90 -6  1015.5  -0.9  761  309           
21 21.11.17 220 (ЮЗ) 7-11{16}  10 км  позёмок{ливн. осадки}  9/9 600 м кучево-дожд. 
[Cb cap]
-0.9 -2 92 -5  1014.7  -0.8  760  308  -7.4    0.5  неравномерный
сухой снег
100% 
00 22.11.17 200 (Ю) 14-17{18}  20000 м  позёмок{ливн. осадки}  8/8 600 м кучево-дожд. 
[Cb cap]
+1.4 -3.4 70 -4  1012.7  -2.1  759  305           
03 22.11.17 190 (Ю) 13-17{18}  20000 м  позёмок{ливн. осадки}  10/10 600 м кучево-дожд. 
[Cb cap]
+2.3 -0.9 79 -3  1009.7  -2.9  757  302           
06 22.11.17 180 (Ю) 17-22{23}  4000 м  слаб. ливневой снег  10/10 600 м кучево-дожд. 
[Cb cap]
+2 +0.4 89 -4  1006.6  -3.1  754  302           
09 22.11.17 190 (Ю) 16-20{27}  20000 м  {ливн. осадки}  10/10 600 м кучево-дожд. 
[Cb cap]
+3 +1.1 87 -2  1006.1  -0.4  754  300    +3     
12 22.11.17 210 (ЮЗ) 12-15{21}  20000 м  {ливн. осадки}  4/4 600 м кучево-дожд. 
[Cb cap]
+3.4 +2 91 -1  1005.9  -0.3  754  300           
15 22.11.17 210 (ЮЗ) 8-10{16}  20000 м    6/6 600 м кучево-дожд. 
[Cb cap]
+3.3 +2.2 92 1004.9  -0.9  753  299           
18 22.11.17 210 (ЮЗ) 6-7{11}  20000 м    8/8 600 м кучево-дожд. 
[Cb cap]
+3.2 +2.4 94 1004  -0.9  752  299           
21 22.11.17 220 (ЮЗ) 1-2{07}  20000 м    10/10 600 м кучево-дожд. 
[Cb cap]
+2.6 +1.5 92 +3  1003.1  -0.9  752  300  +2.6      мокрый или
старый снег
50-90% 
00 23.11.17 300 (СЗ) 4-6{06}  20000 м    10/3 600 м кучево-дожд., средняя 
[Cb cap|Ac und]
+2.2 +0.5 88 1002.6  -0.6  751  300  +2.2         
03 23.11.17 320 (СЗ) 5-6{06}  20000 м    10/0 средняя 
[As trans]
+1.5 -1.9 78 -1  1001.8  -0.8  751  301           
06 23.11.17 310 (СЗ) 4-6{09}  20000 м    3/1 600 м кучево-дожд., средняя 
[Cb cap|Ac lent]
-0.6 -3 84 -3  1002  0.2  751  304           
09 23.11.17 310 (СЗ) 6-7{07}  20000 м    3/3 600 м кучево-дожд., средняя, верхняя 
[Cb cap|Ac lent|Cc]
-1.3 -5.4 74 -5  1002.7  0.7  751  305    +2.8       
12 23.11.17 320 (СЗ) 10-12{12}  20000 м    10/8 600 м кучево-дожд., верхняя 
[Cb cap|Cs]
-1.5 -5.3 75 -7  1001.6  -1.1  751  305           
15 23.11.17 320 (СЗ) 11-13{14}  20000 м    6/6 600 м кучево-дожд. 
[Cb cap]
-3.4 -6.7 78 -9  999.7  -1.9  749  306           
18 23.11.17 310 (СЗ) 10-13{15}  20000 м    3/3 600 м кучево-дожд. 
[Cb cap]
-4 -5.9 87 -10  997.3  -2.4  747  306           
Время (UTC), дата Ветер
(°,м/с) 
Видим.   Явления Облачность Т
(°С)
Тd
(°С)
f(%) Тe
(°С)
Pmin
(гПа)
dP
(гПа)
Po
(мм)
O2
(г/м3)
Тmin Tmax R s Состояние
почвы

Для получения пояснительной информации подведите курсор к названию столбца.

ПОГОДА Мыс Терпения - архив

Всё, что Вы хотите узнать о погоде Мыс Терпения - удобно и подробно!

Выберите нужную дату (начиная с 1 января 2015* года) и нажмите кнопку "Найти".
Будут отображены архивные сводки погоды по пункту Мыс Терпения, начиная с указанной даты.


Отображать данные в формате CSV (для использования в таблицах Excel)


Внимание! Наш архив погоды предназначен исключительно для личного некоммерческого использования в познавательных целях. Если Вам необходимы официальные справки о состоянии погоды (для производственных, юридических, коммерческих и т.п. целей), обращайтесь в органы Росгидромета.

*Примечание: данная дата относится к архиву по метеостанциям СССР (Россия, СНГ, Балтия).
Архив по метеостанциям Зарубежной Европы и Азии (кроме Китая) хранится 10 дней, по другим регионам земного шара (Китай, Африка, Америка, Австралия, Океания) - 1 день.

Мыс Терпения - район местоположения метеостанции


Название, широта, долгота, высота метеостанции:
Мыс Терпения 48.6°ш. 144.7°д. 33 м над ур. моря [Российская Федерация]

Дополнительная информация

В oтличие oт бoльшинства пoгoдных сайтoв мы публикуем пoдрoбную метеoинфoрмацию в детальнoм прoфессиoнальнoм фoрмате.

Характеристики температуры и влажнoсти вoздуха измеряются на высoте 2 м в тени вдали oт зданий и деревьев.
Скoрoсть ветра измеряется на высoте 10 м (на урoвне рoста челoвека скoрoсть ветра ниже в 1.5-2 раза). Если метеoстанция нахoдится в гoрoде или в лесу, тo скoрoсть ветра занижена на 2-4 м/с пo сравнению с oткрытым местoм. Скoрoсть ветра над акватoриями крупных рек и oзёр, а также на вершинах хoлмoв на 2-5 м/с выше, чем в oбычных услoвиях.
Атмoсфернoе давление в разных тoчках местнoсти мoжет значительнo oтличаться oт давления на метеoстанции, в зависимoсти oт услoвий рельефа (при пoдъёме на 10 м давление пoнижается примернo на 1 мм рт.ст.).